FW1602 Weather Reports


time (UTC)temp
C
wind
direction
speed
KPH
gust
KPH
rain 1hr
cm
rain 24hr
cm
rain mn
cm
humidity
%
barometer
mb
20260906094513 32 328 4.8 6.4 0.00 0.00 0.00 36 1015.7
20260906093014 32 309 6.4 11.3 0.00 0.00 0.00 37 1015.7
20260906091514 32 324 4.8 6.4 0.00 0.00 0.00 35 1015.7
20260906090014 31 11 4.8 9.7 0.00 0.00 0.00 37 1015.9
20260906084514 31 268 4.8 8.0 0.00 0.00 0.00 38 1015.9
20260906083014 31 333 4.8 6.4 0.00 0.00 0.00 38 1016.1
20260906081514 31 288 4.8 8.0 0.00 0.00 0.00 37 1016.0
20260906080014 30 288 3.2 8.0 0.00 0.00 0.00 38 1016.2
20260906074514 30 330 3.2 6.4 0.00 0.00 0.00 38 1016.2
20260906073035 30 300 4.8 6.4 0.00 0.00 0.00 40 1016.1
20260906071514 29 332 4.8 6.4 0.00 0.00 0.00 41 1016.1
20260906070035 28 328 3.2 6.4 0.00 0.00 0.00 42 1015.9
20260906064514 28 339 3.2 6.4 0.00 0.00 0.00 44 1016.0
20260906063014 27 309 4.8 8.0 0.00 0.00 0.00 44 1016.0
20260906061514 27 319 4.8 6.4 0.00 0.00 0.00 45 1016.0
20260906060015 26 321 4.8 6.4 0.00 0.00 0.00 45 1015.9
20260906054514 26 330 3.2 6.4 0.00 0.00 0.00 46 1016.0
20260906053014 25 319 3.2 6.4 0.00 0.00 0.00 49 1016.2
20260906051514 23 327 3.2 3.2 0.00 0.00 0.00 51 1016.3
20260906050015 22 321 1.6 3.2 0.00 0.00 0.00 55 1016.7
20260906044515 20 291 0.0 3.2 0.00 0.00 0.00 59 1017.0
20260906043014 19 310 3.2 3.2 0.00 0.00 0.00 61 1017.3
20260906041514 18 284 1.6 3.2 0.00 0.00 0.00 63 1017.3
20260906040015 17 312 1.6 3.2 0.00 0.00 0.00 66 1017.5
20260906034515 17 314 1.6 3.2 0.00 0.00 0.00 65 1017.4
20260906033014 17 304 3.2 3.2 0.00 0.00 0.00 65 1017.3
20260906031515 17 315 1.6 3.2 0.00 0.00 0.00 64 1017.3
20260906030016 18 315 1.6 3.2 0.00 0.00 0.00 62 1017.0
20260906024515 17 315 3.2 3.2 0.00 0.00 0.00 64 1016.9
20260906023015 17 298 1.6 3.2 0.00 0.00 0.00 65 1016.9
20260906021515 17 0 0.0 0.0 0.00 0.00 0.00 63 1016.7
20260906020016 18 315 1.6 3.2 0.00 0.00 0.00 61 1016.7
20260906014515 18 315 1.6 3.2 0.00 0.00 0.00 60 1016.7
20260906013015 18 315 3.2 3.2 0.00 0.00 0.00 61 1016.7
20260906011515 17 310 3.2 3.2 0.00 0.00 0.00 64 1016.9
20260906010016 17 314 1.6 3.2 0.00 0.00 0.00 63 1017.0
20260906004516 17 324 1.6 3.2 0.00 0.00 0.00 65 1017.1
20260906003018 16 300 1.6 3.2 0.00 0.00 0.00 66 1017.2
20260906001516 17 304 1.6 3.2 0.00 0.00 0.00 63 1017.1
20260906000017 17 270 1.6 3.2 0.00 0.00 0.00 63 1017.0
20260905234509 17 360 0.0 3.2 0.00 0.00 0.00 61 1017.1
20260905233008 17 315 1.6 3.2 0.00 0.00 0.00 63 1017.4
20260905231530 16 332 3.2 3.2 0.00 0.00 0.00 65 1017.8
20260905230010 17 306 3.2 8.0 0.00 0.00 0.00 62 1017.6
20260905224509 17 298 1.6 3.2 0.00 0.00 0.00 62 1017.5
20260905223009 17 307 1.6 3.2 0.00 0.00 0.00 61 1017.5
20260905221530 18 294 3.2 8.0 0.00 0.00 0.00 58 1017.4
20260905220009 18 293 3.2 8.0 0.00 0.00 0.00 57 1017.3
20260905214509 18 292 3.2 3.2 0.00 0.00 0.00 57 1017.5
20260905213030 20 296 1.6 3.2 0.00 0.00 0.00 55 1017.3
20260905211509 17 304 1.6 3.2 0.00 0.00 0.00 60 1017.8
20260905210023 17 307 1.6 3.2 0.00 0.00 0.00 60 1017.9
20260905204509 18 326 4.8 8.0 0.00 0.00 0.00 58 1017.7
20260905203009 18 316 3.2 8.0 0.00 0.00 0.00 57 1017.7
20260905201510 18 327 3.2 8.0 0.00 0.00 0.00 57 1017.7
20260905200031 18 315 1.6 3.2 0.00 0.00 0.00 56 1017.6
20260905194530 18 326 3.2 3.2 0.00 0.00 0.00 56 1017.7
20260905193010 18 321 1.6 3.2 0.00 0.00 0.00 54 1017.6
20260905191531 18 270 0.0 3.2 0.00 0.00 0.00 56 1017.8
20260905190011 18 305 3.2 8.0 0.00 0.00 0.00 56 1017.8
20260905184511 18 315 1.6 3.2 0.00 0.00 0.00 54 1017.5
20260905183030 21 289 1.6 3.2 0.00 0.00 0.00 50 1017.1
20260905181510 21 0 0.0 0.0 0.00 0.00 0.00 50 1017.0
20260905180011 21 315 0.0 3.2 0.00 0.00 0.00 50 1016.8
20260905174531 22 315 3.2 8.0 0.00 0.00 0.00 48 1016.5
20260905173010 22 315 3.2 3.2 0.00 0.00 0.00 48 1016.4
20260905171531 22 338 4.8 8.0 0.00 0.00 0.00 47 1016.0
20260905170011 23 315 3.2 8.0 0.00 0.00 0.00 47 1016.1
20260905164510 23 321 3.2 8.0 0.00 0.00 0.00 48 1016.0
20260905163010 24 342 3.2 8.0 0.00 0.00 0.00 47 1015.8
20260905161510 25 341 6.4 9.7 0.00 0.00 0.00 44 1015.6
20260905160032 25 324 4.8 9.7 0.00 0.00 0.00 42 1015.7
20260905154531 25 314 6.4 9.7 0.00 0.00 0.00 41 1015.6
20260905153016 26 329 6.4 9.7 0.00 0.00 0.00 41 1015.5
20260905151510 26 302 6.4 12.9 0.00 0.00 0.00 41 1015.5
20260905150032 27 354 8.0 9.7 0.00 0.00 0.00 40 1015.4
20260905144510 27 335 8.0 9.7 0.00 0.00 0.00 39 1015.0
20260905143031 28 337 6.4 9.7 0.00 0.00 0.00 39 1014.9
20260905141532 28 310 6.4 9.7 0.00 0.00 0.00 39 1014.9
20260905140011 28 17 8.0 9.7 0.00 0.00 0.00 41 1014.9
20260905134531 29 310 6.4 9.7 0.00 0.00 0.00 39 1014.8
20260905133010 29 325 6.4 12.9 0.00 0.00 0.00 41 1014.9
20260905131532 28 30 6.4 9.7 0.00 0.00 0.00 42 1015.0
20260905130011 28 77 6.4 12.9 0.00 0.00 0.00 43 1015.0
20260905124511 28 308 8.0 12.9 0.00 0.00 0.00 43 1015.0
20260905123031 28 353 8.0 9.7 0.00 0.00 0.00 43 1015.4
20260905121511 28 77 9.7 12.9 0.00 0.00 0.00 42 1015.5
20260905120012 28 56 11.3 16.1 0.00 0.00 0.00 42 1015.5
20260905114511 29 62 6.4 11.3 0.00 0.00 0.00 42 1015.5
20260905113011 28 68 9.7 12.9 0.00 0.00 0.00 43 1015.7
20260905111511 28 46 8.0 9.7 0.00 0.00 0.00 42 1015.6
20260905110012 28 43 9.7 14.5 0.00 0.00 0.00 43 1015.7
20260905104511 27 44 11.3 16.1 0.00 0.00 0.00 45 1015.7
20260905103011 28 38 8.0 12.9 0.00 0.00 0.00 44 1015.5
20260905101511 28 53 12.9 17.7 0.00 0.00 0.00 45 1015.7
20260905100012 28 31 9.7 16.1 0.00 0.00 0.00 45 1015.8